Location: Ffald-y-Brenin
(52.0833°N, 4.0000°W)
Time: 04:24:46
(UTC+00:00)

Lacrosse 5 - Pass Details

Date: 18 February 2020
Orbit: 715 x 724 km, 57.0° (Epoch: 21 March)

Event Time Altitude Azimuth Distance (km) Brightness Sun altitude
Exits shadow 03:47:39 29° 98° (E) 1,305 3.5 -33.6°
Drops below altitude 10° 03:50:09 10° 106° (ESE) 2,208 4.9 -33.2°
Sets 03:52:33 0° 109° (ESE) 3,128 5.8 -32.9°
